Home > Time Zones > World Clock > Weather > Japan > Naha > Past weeks

Flag for Japan Weather past 2 weeks in Naha, Okinawa, Japan

Now
86 °F

Scattered showers. Scattered clouds.


Feels Like: 97 °F
Forecast: 82 / 88 °F
Wind: 15 mph from East

Location: Naha Airport

Current Time: Jul 29, 2014 at 7:19:19 PM

Latest Report: Jul 29, 2014 at 7:00 PM


Visibility: N/A

Pressure: 29.62 "Hg

Humidity: 75%

Dew point: 77 °F

Location of NahaLocation

Historic Weather in Naha — Graph

°F

Naha temperature yesterday

Maximum temperature yesterday: 90 °F (at 10:30 AM)
Minimum temperature yesterday: 82 °F (at 3:00 AM)
Average temperature yesterday: 86 °F

Past Weeks' High & Low Weather Summary

 TemperatureHumidityPressure
High91 °F (Jul 20, 1:30 PM)89% (Jul 16, 1:30 AM)29.95 "Hg (Jul 16, 1:30 AM)
Low79 °F (Jul 29, 3:47 AM)55% (Jul 20, 4:00 PM)29.62 "Hg (Jul 29, 4:30 PM)
Average85 °F74%29.81 "Hg
* Reported Jul 14 6:00 PM — Jul 29 6:02 PM, Naha, Weather by CustomWeather, © 2014

Note: Actual official high and low records may vary slightly from our data, if they occured in-between our weather recording intervals... More about our weather records

Advertising

Naha weather history for previous 24 hours

 ConditionsComfort  
Time TempWeatherWind HumidityBarometerVisibility
6:02 PM
Jul 29
86 °FSprinkles. Scattered clouds.18 mph75%29.65 "HgN/A
5:30 PM90 °FScattered showers. Scattered clouds.15 mph67%29.62 "HgN/A
5:00 PM90 °FScattered showers. Scattered clouds.17 mph67%29.62 "HgN/A
4:30 PM91 °FScattered clouds.17 mph63%29.62 "HgN/A
4:00 PM90 °FScattered clouds.20 mph67%29.65 "HgN/A
3:30 PM90 °FScattered clouds.17 mph63%29.65 "HgN/A
3:00 PM90 °FScattered clouds.17 mph67%29.65 "HgN/A
2:30 PM91 °FScattered clouds.15 mph59%29.65 "HgN/A
2:00 PM91 °FPassing clouds.15 mph59%29.65 "HgN/A
1:30 PM91 °FScattered clouds.16 mph63%29.65 "HgN/A
1:00 PM91 °FScattered clouds.17 mph59%29.68 "HgN/A
12:30 PM90 °FScattered clouds.15 mph63%29.68 "HgN/A
12:00 PM91 °FScattered clouds.13 mph59%29.68 "HgN/A
11:30 AM90 °FScattered clouds.15 mph63%29.71 "HgN/A
11:00 AM90 °FScattered clouds.14 mph63%29.71 "HgN/A
10:30 AM88 °FPartly sunny.13 mph66%29.71 "HgN/A
10:00 AM88 °FScattered clouds.14 mph66%29.71 "HgN/A
9:30 AM88 °FScattered clouds.15 mph66%29.71 "HgN/A
9:00 AM88 °FScattered clouds.14 mph66%29.71 "HgN/A
8:30 AM88 °FScattered clouds.13 mph66%29.71 "HgN/A
8:00 AM86 °FScattered clouds.10 mph75%29.71 "HgN/A
7:30 AM84 °FPassing clouds.8 mph79%29.71 "HgN/A
7:00 AM84 °FPassing clouds.8 mph79%29.71 "HgN/A
6:30 AM82 °FPassing clouds.8 mph84%29.68 "HgN/A
5:30 AM82 °FPassing clouds.6 mph84%29.68 "HgN/A
5:00 AM82 °FPassing clouds.3 mph84%29.68 "HgN/A
4:30 AM81 °FScattered showers. Passing clouds.5 mph89%29.68 "HgN/A
4:00 AM81 °FSprinkles. Passing clouds.3 mph79%29.68 "HgN/A
3:47 AM79 °FLots of rain. Passing clouds.9 mph89%29.68 "Hg4 mi
3:00 AM82 °FPassing clouds.6 mph84%29.68 "HgN/A
2:30 AM82 °FPassing clouds.8 mph84%29.68 "HgN/A
2:00 AM82 °FPassing clouds.3 mph84%29.68 "HgN/A
1:30 AM82 °FPassing clouds.6 mph84%29.68 "HgN/A
1:00 AM81 °FSprinkles. Passing clouds.8 mph84%29.71 "HgN/A
12:47 AM82 °FRain showers. Partly cloudy.10 mph84%29.71 "HgN/A
12:30 AM84 °FRain showers. Partly cloudy.6 mph79%29.71 "HgN/A
12:00 AM84 °FScattered showers. Passing clouds.7 mph79%29.71 "HgN/A
11:30 PM
Jul 28
84 °FRain showers. Passing clouds.8 mph79%29.71 "HgN/A
11:00 PM84 °FPassing clouds.9 mph79%29.71 "HgN/A
10:30 PM86 °FPassing clouds.13 mph70%29.71 "HgN/A
10:00 PM84 °FPassing clouds.10 mph79%29.71 "HgN/A
9:30 PM86 °FPassing clouds.12 mph70%29.71 "HgN/A
9:00 PM86 °FPassing clouds.9 mph70%29.68 "HgN/A
8:30 PM86 °FPassing clouds.10 mph70%29.68 "HgN/A
8:00 PM86 °FPassing clouds.13 mph70%29.68 "HgN/A
7:30 PM86 °FPassing clouds.13 mph70%29.68 "HgN/A
7:00 PM86 °FPassing clouds.10 mph70%29.65 "HgN/A
Weather by CustomWeather, © 2014

See weather overviewHow to use our weather pages